Location: Bosmont
(49.7318°N, 3.8587°E)
Time: 08:29:46
(UTC+00:00)

AO-85 - Visible Passes

Search period start: 06 December 2023 00:00
Search period end: 16 December 2023 00:00
Orbit: 516 x 753 km, 64.8° (Epoch: 04 January)

Date Brightness Start Highest point End Pass type
(mag) Time Alt. Az. Time Alt. Az. Time Alt. Az.
06 Dec ? 17:17:20 10° NNW 17:19:35 14° NNE 17:20:13 13° NNE visible
06 Dec ? 18:56:43 10° NNW 18:57:30 14° NNW 18:57:30 14° NNW visible
07 Dec ? 17:36:53 10° NNW 17:39:38 18° NNE 17:39:38 18° NNE visible
07 Dec ? 19:16:21 10° NW 19:16:56 14° NNW 19:16:56 14° NNW visible
08 Dec ? 17:56:25 10° NNW 17:59:07 23° NNE 17:59:07 23° NNE visible
08 Dec ? 19:36:05 10° NW 19:36:25 12° NW 19:36:25 12° NW visible
09 Dec ? 16:36:34 10° NNW 16:39:01 14° NNE 16:41:22 11° NE visible
09 Dec ? 18:15:59 10° NNW 18:18:40 30° N 18:18:40 30° N visible
10 Dec ? 16:56:06 10° NNW 16:59:19 19° NNE 17:01:01 16° NE visible
10 Dec ? 18:35:37 10° NW 18:38:20 36° NNW 18:38:20 36° NNW visible
11 Dec ? 17:15:37 10° NNW 17:19:29 28° NE 17:20:49 24° ENE visible
11 Dec ? 18:55:22 10° NW 18:58:08 37° NW 18:58:08 37° NW visible
12 Dec ? 17:35:11 10° NNW 17:39:30 44° NE 17:40:48 35° E visible
12 Dec ? 19:15:20 10° NW 19:18:09 29° W 19:18:09 29° W visible
13 Dec ? 16:15:16 10° NNW 16:18:38 21° NNE 16:22:09 10° ENE visible
13 Dec ? 17:54:48 10° NW 17:59:21 77° NE 18:01:06 39° SE visible
13 Dec ? 19:35:44 10° WNW 19:38:28 19° WSW 19:38:28 19° WSW visible
14 Dec ? 16:34:46 10° NNW 16:38:45 30° NE 16:42:57 10° E visible
14 Dec ? 18:14:34 10° NW 18:19:05 59° SW 18:21:53 24° SSE visible
15 Dec ? 16:54:19 10° NNW 16:58:43 49° NE 17:03:23 10° ESE visible
15 Dec ? 18:34:35 10° WNW 18:38:40 31° WSW 18:42:57 10° S visible
